Weather in Chuhuiv

Ukraine / Kharkiv Region     49°50′06″N   36°40′46″E
temp.,
°C
wind,
m/s
gust,
m/s
humid.,
%
clouds,
%
prec.,
mm/h
press.,
hPa
HPBL,
m
2 august, mon
mon200:00+23ssw1150100 0.0 101111
03:00+22s22535 0.0 101111
06:00+24sw225137 0.0 101159
09:00+29sw34401 0.0 1011570
12:00+34ssw67260 0.0 10102725
15:00+35ssw67232 0.0 10092959
18:00+34ssw55261 0.0 10082653
21:00+27ssw41044100 0.0 1009184
3 august, tue
tue300:00+20nw8158996 0.6 1012537
03:00+19ese2290100 0.9 101058
06:00+19wsw259253 0.2 1012162
09:00+23wnw346777 0.2 1012693
12:00+29nw4443100 0.0 10121842
15:00+27nnw564798 0.3 1011639
18:00+23w35610 1.4 1012377
21:00+19ssw22800 1.4 101415
4 august, wed
wed400:00+18ne377419 0.0 1015127
03:00+17ne2279100 0.0 101613
06:00+17nne227614 0.0 101634
09:00+24nne33461 0.0 1017803
12:00+28nne433235 0.0 10162587
15:00+30n432733 0.0 10152931
18:00+28nnw543398 0.0 10161523
21:00+23nne2242100 0.0 101626
5 august, thu
thu500:00+22ese114517 0.0 101713
03:00+18ene2257100 0.0 101714
06:00+18ese235625 0.0 101845
09:00+26se34358 0.0 1017685
12:00+30s332698 0.0 10162710
15:00+31ssw3223100 0.0 10153092
18:00+31ssw322463 0.0 10142870
21:00+24sse343830 0.0 101474
6 august, fri
fri600:00+20ese23495 0.0 101431
03:00+19se22515 0.0 101424
06:00+19e34495 0.0 101475
09:00+28ese452712 0.0 1012637
12:00+33ese55215 0.0 10112396
15:00+34ese55214 0.0 10102927
18:00+34ese462238 0.0 10093186
21:00+27e41036100 0.0 1009204